Regional Weather Roundup
Issued by NWS

Home | Current Version | Previous Version | Text Only | Print | Product List | Glossary On
Versions: 1 2 3 4 5 6 7 8 9 10 11 12 13 14 15 16 17 18 19 20 21 22 23 24 25 26 27 28 29 30 31 32 33 34 35 36 37 38 39 40 41 42 43 44 45 46 47 48 49 50
000
ASCA44 KEWX 291220
RWRMX

LATIN AMERICA AND CARIBBEAN REGIONAL WEATHER ROUNDUP
NATIONAL WEATHER SERVICE AUSTIN/SAN ANTONIO TX
700 AM CDT SUN MAR 29 2015

NOTE: "FAIR" INDICATED FEW OR NO CLOUDS BELOW 12,000 FEET WITH NO
SIGNIFICANT WEATHER AND/OR OBSTRUCTIONS TO VISIBILITY.

BAJA CALIFORNIA

CITY           SKY/WX    TMP DP  RH WIND       PRES   REMARKS
TIJUANA        FOG       59  57  94 NW3       30.05S VSB 1

NORTHWESTERN MEXICO

CITY           SKY/WX    TMP DP  RH WIND       PRES   REMARKS

NORTHEASTERN MEXICO

CITY           SKY/WX    TMP DP  RH WIND       PRES   REMARKS
CHIHUAHUA      CLEAR     43  23  45 S12       30.21  WCI  37
MATAMOROS      CLEAR     64  64 100 SE9       30.12
MONTERREY      CLEAR     54  52  94 NW7       30.05R
REYNOSA        CLEAR     61  55  82 S7        30.07R
TORREON        CLEAR     59  41  51 CALM      30.19R
CD. VICTORIA   CLEAR     61  55  82 S14       30.09R

WESTERN MEXICO

CITY           SKY/WX    TMP DP  RH WIND       PRES   REMARKS
AGUASCALIENTES CLEAR     45  39  81 NE5       30.36R WCI  42
COLIMA         CLEAR     68  48  49 N9        30.11
DEL BAJIO      MOCLDY    48  45  87 CALM      30.40R
GUADALAJARA    CLEAR     52  46  82 CALM      30.28R
MAZATLAN       FOG       63  61  94 N8        30.01R VSB 1/2
P. VALLARTA    CLEAR     66  64  94 NE5       30.01
ZACATECAS      MOCLDY    43  34  70 S12       30.37R WCI  37

CENTRAL MEXICO

CITY           SKY/WX    TMP DP  RH WIND       PRES   REMARKS
MEXICO CITY    CLOUDY    52  46  82 E5        30.44R
MORELIA        PTCLDY    52  50  93 CALM      30.33S
PUEBLA         CLOUDY    50  46  87 N5        30.42R WCI  48
QUERETARO      MOCLDY    52  46  82 CALM      30.39R
S. LUIS POTOSI CLEAR     46  45  93 CALM      30.33
TAMPICO        PTCLDY    61  59  94 CALM      30.13
TOLUCA         LGT RAIN  46  43  87 E5        30.48S WCI  44

SOUTHERN MEXICO

CITY           SKY/WX    TMP DP  RH WIND       PRES   REMARKS
ACAPULCO       CLEAR     73  64  73 NW3       29.97R
OAXACA         PTCLDY    57  52  82 N2        30.33
VERACRUZ       CLOUDY    66  63  88 CALM      30.14

YUCATAN PENINSULA

CITY           SKY/WX    TMP DP  RH WIND       PRES   REMARKS
CAMPECHE       MOCLDY    70  63  78 NE6       30.10S
CANCUN         MOCLDY    75  64  69 NE14      30.14R
CHETUMAL       MOCLDY    68  57  68 CALM      30.09R
CD. DEL CARMEN MOCLDY    73  64  73 E7        30.10
COZUMEL        MOCLDY    72  66  83 E14       30.12S
MERIDA         MOCLDY    70  61  73 E7        30.15R
TAPACHULA      PTCLDY    81  73  78 CALM      29.97S
TUX. GUTIERREZ MOCLDY    63  59  88 S5        30.14
VILLAHERMOSA   CLOUDY    70  70 100 CALM      30.14R

CENTRAL AMERICA

CITY           SKY/WX    TMP DP  RH WIND       PRES   REMARKS
BELIZE CITY    PTCLDY    70  68  94 NW6       30.10R
MANAGUA        MOSUNNY   75  68  78 E5        29.94S

CARIBBEAN

CITY           SKY/WX    TMP DP  RH WIND       PRES   REMARKS
ARUBA          MOSUNNY   81  73  78 E18       29.97R
KINGSTON       MOSUNNY   77  72  83 W3        30.06R
NASSAU         CLOUDY    70  61  73 N12       30.23R
SAN JUAN       MOSUNNY   79  70  73 VRB5      30.11R
SANTO DOMINGO  MOSUNNY   72  68  88 NE6       30.06S FOG
ST. CROIX      MOSUNNY   81  68  65 E14       30.12
ST. KITTS      MOSUNNY   81  66  61 E14       30.09S
ST. MAARTEN    MOSUNNY   81  66  61 E12       30.12R

$$



USA.gov is the U.S. government's official web portal to all federal, state and local government web resources and services.